الصفحة الرئيسية
METAR-TAF:

METAR-TAF

مطار :

Limon Municipal Airport

Limon, كولورادو, الولايات المتحدة

دائرة عرض: 39-16-24N, خط طول: 103-40-00W, ارتفاع: 1635 متر

مراقبة الطقس الحالي

تاريخ ووقت الإصدار 11 دقيقة قبل الساعة 22:55UTC
ريح 10 عقدة من الشمال/الشمال الغربي
درجة الحرارة 6°درجة مئوية
الرطوبة 24%
ضغط 1027 hPa
الرؤية: 16.1 كم
سماء صافية

METAR: KLIC 152255Z AUTO 34010KT 10SM CLR 06/M13 A3033 RMK AO2 SLP297 T00611128

زمن: 17:06 (23:06 UTC)


TAF: مفقودة

أرصاد الطقس والتوقعات من أكثر من 4000 مطار (تقارير الطقس للمطار METAR والتنبؤ بالطقس بالمطارTAF).

المحطات المتاحة هي النقط الصفراء والحمراء على الخريطة.

حرك المؤشر فوق النقطة لمعرفة اسم المحطة.

ثم انقر لمعرفة أرصاد وتوقعات الطقس.

لتغيير الخارطة: اضغط على الأزرار الخضراء مع رمز الصليب الأسود للتكبير. على الزر الأخضر مع شرطة للتصغير، أو على الأسهم الخضراء للخرائط المجاورة.


METAR-TAF: